www.pogodaiklimat.ru

Погода и климат >> Архив погоды >> Россия >> Якутия >> Якутск


АРХИВ ПОГОДЫ в Якутске

Время (UTC), дата Ветер
(напр.,м/с)
 
Видим.   Явления Облачность Т
(С)
Тd
(С)
f
(%)
Тe
(С)
Тes
(С)
Комфортность P
(гПа)
Po
(гПа)
Тmin
(С)
Tmax
(С)
R
(мм)
R24
(мм)
S
(см)
21 12.07 штиль 0 50 км 8/0
[Ac trans Ci fib]
+22.6 +18.9 80 +28 +30 душно 1007.0 995.4
00 13.07 ЮВ 1 50 км 10/0
[Ac trans Ci fib]
+29.4 +20.0 57 +36 +42 очень
душно
1006.7 995.4 +16.4
03 13.07 Ю 1 50 км 10/4 600 м
[Cu med, cong Ac trans Ci fib]
+32.7 +14.6 34 +34 +39 очень
жарко
1005.5 994.3
06 13.07 В 2 50 км 10/5 600 м
[Cu med, cong Ac trans Ci fib]
+33.0 +13.7 31 +34 +36 очень
жарко
1004.0 992.8
09 13.07 В 2 50 км 10/4 600 м
[Cu med, cong Ac trans Ci fib]
+31.9 +14.3 34 +33 +34 жарко 1003.3 992.1
12 13.07 СЗ 1 50 км 10/3 600 м
[Cu med, cong Ac trans Ci fib]
+27.1 +19.3 62 +33 +33 очень
душно
1003.8 992.5 +33.8
15 13.07 штиль 0 50 км 10/3 600 м
[Cu med, cong Ac trans Ci fib]
+19.8 +17.1 84 +22 +22 комфорт 1004.3 992.7
18 13.07 СЗ 1 50 км 10/0
[Ac trans Ci fib]
+16.7 +14.6 87 +18 +18 тепло 1004.6 992.8
21 13.07 ЮВ 2 50 км 8/0
[Ac trans Ci fib]
+21.0 +17.5 80 +26 +27 душно 1005.1 993.5
00 14.07 Ю 5 50 км 3/0
[Ac trans]
+25.8 +17.5 60 +30 +33 душно 1005.4 994.0 +15.5
03 14.07 Ю 3 50 км 4/0
[Ci fib]
+30.3 +16.1 42 +33 +43 душно 1004.4 993.2
06 14.07 ЮВ 2 50 км 5/3 600 м
[Cu med, cong Ci fib]
+32.4 +14.7 34 +34 +40 очень
жарко
1003.4 992.2
09 14.07 штиль 0 50 км 10/3 600 м
[Cu med, cong Ac trans Ci fib]
+32.2 +13.8 33 +34 +35 душно 1003.4 992.2
12 14.07 З 2 50 км 10/3 600 м
[Cu med, cong Ac trans Ci fib]
+26.8 +19.0 62 +32 +32 очень
душно
1004.5 993.1 +32.8
15 14.07 ЮЗ 1 50 км 10/0
[Ci fib]
+20.1 +17.6 86 +24 +24 комфорт 1005.2 993.6
18 14.07 С 1 50 км 8/0
[Ac trans Ci fib]
+20.4 +17.5 83 +25 +25 комфорт 1005.8 994.1
21 14.07 С 1 50 км 8/0
[Ci fib]
+21.2 +18.1 82 +25 +27 комфорт 1006.6 995.0
00 15.07 СЗ 2 50 км 8/0
[Ac trans Ci fib]
+26.7 +18.8 62 +32 +37 очень
душно
1006.6 995.2 +19.0
03 15.07 СЗ 3 50 км 10/0
[Ci fib]
+30.2 +14.3 38 +32 +41 жарко 1006.2 994.9
06 15.07 СЗ 5 50 км 10/0
[Ci fib]
+30.5 +11.3 31 +31 +35 жарко 1005.7 994.4
09 15.07 СЗ 3
{10}
50 км 10/0
[Ci fib]
+29.5 +9.8 29 +29 +31 жарко 1006.0 994.7
12 15.07 СЗ 2
{10}
50 км 10/0
[Ci fib]
+25.3 +13.6 48 +27 +27 жарко 1007.1 995.6 +31.5
15 15.07 СЗ 1 50 км 10/0
[Ci fib]
+19.7 +12.5 63 +22 +22 комфорт 1008.1 996.4
18 15.07 СЗ 2 50 км 10/0
[Ac trans Ci fib]
+17.6 +11.0 65 +18 +18 тепло 1008.2 996.4
21 15.07 СЗ 3 50 км 10/0
[Ac trans Ci fib]
+16.9 +10.5 66 +17 +18 по сезону 1008.8 996.9
00 16.07 З 3 50 км 10/3 1000 м
[Cu med, cong Ac trans Ci fib]
+21.9 +9.8 46 +23 +26 комфорт 1008.6 997.0 +16.2
03 16.07 СЗ 3 50 км 10/4 1000 м
[Sc Ac trans Ci fib]
+24.8 +9.0 37 +25 +29 комфорт 1007.7 996.2
06 16.07 СЗ 4 50 км 8/3 1000 м
[Cu med, cong Ci fib]
+27.3 +7.5 29 +27 +31 жарко 1006.5 995.1
09 16.07 СЗ 4 50 км 10/3 1000 м
[Cu med, cong Ac trans Ci fib]
+26.3 +2.8 22 +25 +26 комфорт 1006.4 994.9
12 16.07 З 2 50 км 8/0
[Ci fib]
+20.7 +5.4 37 +22 +22 комфорт 1007.5 995.8 +27.9
15 16.07 СЗ 1 50 км 4/0
[Ci fib]
+15.3 +1.0 38 +16 +16 по сезону 1007.4 995.5
18 16.07 СЗ 2 10 км дым 8/0
[Ci fib]
+14.3 +4.3 51 +14 +14 по сезону 1007.0 995.1
21 16.07 З 2 10 км дым 8/0
[Ci fib]
+15.7 +5.6 51 +16 +17 по сезону 1006.8 994.9
00 17.07 СЗ 3 20 км дым 8/0
[Ci fib]
+22.9 +7.1 36 +24 +29 комфорт 1005.4 993.8 +13.5
03 17.07 СЗ 3 20 км 10/0
[Cs]
+25.9 +6.9 30 +26 +34 жарко 1004.7 993.2
06 17.07 СЗ 4 20 км 10/3 600 м
[Cu med, cong Ac trans Cs]
+27.8 +9.0 31 +28 +30 жарко 1002.9 991.6
09 17.07 З 6-10
{11}
20 км 10/4 600 м
[Cb cap Ac trans Ci fib]
+25.9 +10.9 39 +27 +27 жарко 1001.6 990.2
12 17.07 З 4
{10}
20 км слаб. ливневой дождь 10/6 630 м
[Cb cap Ac trans Ci fib]
+22.6 +15.5 64 +27 +27 душно 1000.9 989.4 +28.4 0.0
15 17.07 ЮЗ 2 20 км {ливн. осадки} 10/8 630 м
[Cb cap Ac trans Ci fib]
+20.2 +15.8 76 +24 +24 комфорт 999.2 987.6
18 17.07 З 3 20 км {ливн. осадки} 10/4 600 м
[Cb cap Ac trans Ci fib]
+18.0 +15.4 85 +18 +18 тепло 998.8 987.1
21 17.07 СЗ 4 50 км 4/1 600 м
[Cu med, cong Ac trans Ci fib]
+15.4 +12.1 81 +14 +15 прохладно 999.5 987.7
00 18.07 З 5 50 км 10/8 960 м
[Cu Sc Ac trans Ci fib]
+15.7 +11.1 74 +15 +15 холодно 1000.0 988.2 +14.9 0.4
03 18.07 СЗ 5 50 км 10/8 660 м
[Cb cap Ac trans]
+13.4 +10.3 81 +11 +12 очень
холодно
1001.8 989.9 +13.4
06 18.07 СЗ 3 50 км 10/8 800 м
[Cb cap Ac trans]
+14.4 +11.2 81 +13 +14 очень
холодно
1003.1 991.3
09 18.07 СЗ 2 50 км {дождь} 10/8 1500 м
[Cu Sc Ac trans]
+14.4 +9.1 70 +14 +14 очень
холодно
1004.3 992.4
12 18.07 СЗ 2 50 км {дождь} 10/8 1500 м
[Cu Sc Ac trans Ci fib]
+13.3 +9.1 76 +13 +13 очень
холодно
1006.0 994.0 +16.6 0.0
15 18.07 С 1 50 км 10/8 1000 м
[Cu Sc Ac trans Ci fib]
+10.9 +5.1 67 +11 +11 холодно 1006.6 994.5
18 18.07 СЗ 1 50 км 10/5 1000 м
[Sc Ac trans Ci fib]
+7.3 +4.2 81 +6 +6 очень
холодно
1007.2 995.0
21 18.07 Ю 1 50 км 10/8 1440 м
[Sc Ac trans Ci fib]
+8.5 +5.2 80 +8 +8 очень
холодно
1007.8 995.6
00 19.07 С 1 20 км слаб. дождь 10/6 1380 м
[Sc Ac trans]
+10.0 +5.9 76 +10 +11 очень
холодно
1008.6 996.4 +7.3 0.0
03 19.07 З 3 20 км слаб. дождь 10/8 1140 м
[Sc Ac trans]
+9.6 +7.3 86 +7 +8 очень
холодно
1010.6 998.4
06 19.07 З 4 50 км {дождь} 10/4 600 м
[Sc Ac trans Ci fib]
+15.1 +8.1 63 +14 +16 очень
холодно
1010.9 999.0
09 19.07 СЗ 3 50 км 10/6 600 м
[Cb cap Ac trans]
+14.5 +1.3 41 +14 +14 очень
холодно
1012.6 1000.6
12 19.07 СЗ 2 50 км 10/5 600 м
[Sc Ac trans]
+12.5 +2.5 50 +12 +12 очень
холодно
1014.4 1002.3 +16.5 2
15 19.07 СЗ 1 50 км 6/1 600 м
[Sc Ac trans Ci fib]
+8.5 +4.0 73 +8 +8 очень
холодно
1015.3 1003.0
18 19.07 З 2 50 км 4/0
[Ac trans]
+5.1 +2.5 83 +3 +3 очень
холодно
1016.3 1003.8

 

Местоположение метеостанции Якутск (Якутия, Россия): широта 62.00 долгота 129.60 высота над уровнем моря 101 м.

В архиве по умолчанию представлена погода в Якутске за последнюю неделю. Архивные данные за месяц целиком и за предыдущие месяцы, начиная с января 2011 года, Вы можете получить, выбрав интересующий диапазон дат из раскрывающегося списка и нажав кнопку "Ввод!".


*Определитесь, кто Вы:
робот инопланетянин человек

Внимание! Время в таблицах - всемирное. Для получения местного времени необходимо прибавить поправку, которая равна 9 ч.

Смотрите также архив погоды в соседних городах и на ближайших метеорологических станциях:

Погода в Покровске (Якутия, Россия) (64 км)
Погода в Намцах (Якутия, Россия) (80 км)
Погода в Бердигестяхе (Якутия, Россия) (138 км)
Погода в Чурапче (Якутия, Россия) (157 км)
Погода в Батамае (Якутия, Россия) (169 км)
Погода в Тегюльте (Якутия, Россия) (172 км)
Погода в Амге (Якутия, Россия) (173 км)
Погода в Верхоянском Перевозе (Якутия, Россия) (191 км)
Погода в Ытык-Кюёле (Якутия, Россия) (207 км)
Погода в Сеген-Кюеле (Якутия, Россия) (225 км)

Пояснения к столбцам:

Ветер - указаны скорость ветра в м/с - средняя за 10 мин, порывы в срок и между сроками (в фигурных скобках) и направление, откуда дует ветер: С - северный, СВ - северо-восточный, В - восточный, ЮВ - юго-восточный, Ю - южный, ЮЗ - юго-западный, З - западный, СЗ - северо-западный.
Видимость - горизонтальная дальность видимости в метрах или километрах. При видимости от 1 до 10 км при отсутствии осадков обычно наблюдается дымка, при ухудшении видимости до 1 км и менее - туман. В сухую погоду видимость может ухудшаться дымом, пылью или мглою.
Явления - указаны атмосферные явления, наблюдавшиеся в срок или в последний час перед сроком; фигурными скобками обозначены явления, наблюдавшиеся между сроками (за 1-3 часа до срока); квадратными скобками обозначены град или гололедные отложения с указанием их диаметра в мм.
Облачность - указаны через наклонную черту общая и нижняя облачность в баллах и высота нижней границы облаков в метрах; квадратными скобками обозначены формы облаков: Ci - перистые, Cs - перисто-слоистые, Cc - перисто-кучевые, Ac - высококучевые, As - высокослоистые, Sc - слоисто-кучевые, Ns - слоисто-дождевые, Cu - кучевые, Cb - кучево-дождевые. Подробнее классификацию облаков см. в Атласе облаков (PDF).
T - Температура воздуха - температура, измеренная на высоте 2 м над землей.
Td - Температура точки росы - температура, при понижении до которой содержащийся в воздухе водяной пар достигнет насыщения.
f - Относительная влажность воздуха - влажноcть воздуха, измеренная на высоте 2 м над землей.
Te - Эффективная температура - температура, которую ощущает одетый по сезону человек в тени. Характеристика душности погоды. При расчете учитывается влияние влажности воздуха и скорости ветра на теплоощущения человека.
Tes - Эффективная температура на солнце - температура, которую ощущает человек, с поправкой на солнечный нагрев. Характеристика знойности погоды. Зависит от высоты солнца над горизонтом, облачности и скорости ветра. Ночью, в пасмурную погоду, а также при ветре 12 м/с и более поправка равна нулю.
P - Атмосферное давление - приведенное к уровню моря атмосферное давление.
Po - Атмосферное давление - измеренное на уровне метеостанции атмосферное давление.
Tmin - Минимальная температура - минимум температуры воздуха на высоте 2 м над землей.
Tmax - Максимальная температура - максимум температуры воздуха на высоте 2 м над землей.
R - Количество осадков - Количество выпавших осадков за период времени, мм. При наведении курсора мыши на число - период времени, за который выпало указанное количество осадков.
R24 - Количество осадков - Количество выпавших осадков за 24 часа, мм.
S - Снежный покров - Высота снежного покрова, см. При наведении курсора мыши на число - состояние снежного покрова и степень покрытия местности в баллах.